Year,Month,Day,Hour,Minute,Value (Times are PST for temperature in C)
2009,09,17,00,00,11.80
2009,09,17,00,01,11.80
2009,09,17,00,02,11.80
2009,09,17,00,03,11.80
2009,09,17,00,04,11.80
2009,09,17,00,05,11.80
2009,09,17,00,06,11.80
2009,09,17,00,07,11.80
2009,09,17,00,08,11.80
2009,09,17,00,09,11.80
2009,09,17,00,10,11.80
2009,09,17,00,11,11.80
2009,09,17,00,12,11.80
2009,09,17,00,16,11.80
2009,09,17,00,17,11.80
2009,09,17,00,18,11.80
2009,09,17,00,19,11.80
2009,09,17,00,20,11.80
2009,09,17,00,21,11.80
2009,09,17,00,22,11.80
2009,09,17,00,23,11.80
2009,09,17,00,24,11.80
2009,09,17,00,25,11.80
2009,09,17,00,26,11.80
2009,09,17,00,27,11.80
2009,09,17,00,28,11.80
2009,09,17,00,29,11.80
2009,09,17,00,30,11.80
2009,09,17,00,31,11.80
2009,09,17,00,32,11.80
2009,09,17,00,33,11.80
2009,09,17,00,34,11.80
2009,09,17,00,35,11.80
2009,09,17,00,36,11.80
2009,09,17,00,37,11.80
2009,09,17,00,38,11.80
2009,09,17,00,39,11.80
2009,09,17,00,40,11.80
2009,09,17,00,41,11.80
2009,09,17,00,42,11.80
2009,09,17,00,43,11.80
2009,09,17,00,44,11.70
2009,09,17,00,45,11.70
2009,09,17,00,46,11.70
2009,09,17,00,47,11.70
2009,09,17,00,48,11.70
2009,09,17,00,49,11.70
2009,09,17,00,50,11.70
2009,09,17,00,51,11.70
2009,09,17,00,52,11.70
2009,09,17,00,53,11.70
2009,09,17,00,54,11.70
2009,09,17,00,55,11.70
2009,09,17,00,56,11.70
2009,09,17,00,57,11.70
2009,09,17,00,58,11.60
2009,09,17,00,59,11.70
2009,09,17,01,00,11.70
2009,09,17,01,01,11.70
2009,09,17,01,02,11.70
2009,09,17,01,03,11.60
2009,09,17,01,04,11.60
2009,09,17,01,05,11.60
2009,09,17,01,06,11.60
2009,09,17,01,07,11.60
2009,09,17,01,08,11.60
2009,09,17,01,09,11.60
2009,09,17,01,10,11.60
2009,09,17,01,11,11.60
2009,09,17,01,12,11.60
2009,09,17,01,13,11.60
2009,09,17,01,14,11.60
2009,09,17,01,15,11.60
2009,09,17,01,16,11.60
2009,09,17,01,17,11.60
2009,09,17,01,18,11.60
2009,09,17,01,19,11.60
2009,09,17,01,20,11.60
2009,09,17,01,21,11.50
2009,09,17,01,22,11.40
2009,09,17,01,23,11.40
2009,09,17,01,24,11.40
2009,09,17,01,25,11.40
2009,09,17,01,26,11.40
2009,09,17,01,27,11.40
2009,09,17,01,28,11.40
2009,09,17,01,29,11.40
2009,09,17,01,30,11.40
2009,09,17,01,31,11.40
2009,09,17,01,32,11.40
2009,09,17,01,33,11.40
2009,09,17,01,34,11.40
2009,09,17,01,35,11.40
2009,09,17,01,36,11.40
2009,09,17,01,37,11.40
2009,09,17,01,38,11.40
2009,09,17,01,39,11.30
2009,09,17,01,40,11.30
2009,09,17,01,41,11.30
2009,09,17,01,42,11.30
2009,09,17,01,43,11.30
2009,09,17,01,44,11.30
2009,09,17,01,45,11.30
2009,09,17,01,46,11.30
2009,09,17,01,47,11.30
2009,09,17,01,48,11.30
2009,09,17,01,49,11.30
2009,09,17,01,50,11.20
2009,09,17,01,51,11.20
2009,09,17,01,52,11.20
2009,09,17,01,53,11.20
2009,09,17,01,54,11.20
2009,09,17,01,55,11.20
2009,09,17,01,56,11.20
2009,09,17,01,57,11.20
2009,09,17,01,58,11.20
2009,09,17,01,59,11.20
2009,09,17,02,00,11.20
2009,09,17,02,01,11.10
2009,09,17,02,02,11.10
2009,09,17,02,03,11.10
2009,09,17,02,04,11.10
2009,09,17,02,05,11.10
2009,09,17,02,06,11.10
2009,09,17,02,07,11.10
2009,09,17,02,08,11.10
2009,09,17,02,09,11.10
2009,09,17,02,10,11.10
2009,09,17,02,11,11.10
2009,09,17,02,12,11.10
2009,09,17,02,13,11.10
2009,09,17,02,14,11.10
2009,09,17,02,15,11.10
2009,09,17,02,16,11.10
2009,09,17,02,17,11.10
2009,09,17,02,18,11.10
2009,09,17,02,19,11.10
2009,09,17,02,20,11.10
2009,09,17,02,21,10.90
2009,09,17,02,22,10.90
2009,09,17,02,23,10.90
2009,09,17,02,24,10.90
2009,09,17,02,25,10.90
2009,09,17,02,26,10.90
2009,09,17,02,27,10.90
2009,09,17,02,28,10.90
2009,09,17,02,29,10.90
2009,09,17,02,30,10.90
2009,09,17,02,31,10.90
2009,09,17,02,32,10.90
2009,09,17,02,33,10.90
2009,09,17,02,34,10.90
2009,09,17,02,35,10.90
2009,09,17,02,36,10.90
2009,09,17,02,37,10.90
2009,09,17,02,38,10.90
2009,09,17,02,39,10.90
2009,09,17,02,40,10.90
2009,09,17,02,41,10.90
2009,09,17,02,42,10.90
2009,09,17,02,43,10.90
2009,09,17,02,44,10.90
2009,09,17,02,45,10.90
2009,09,17,02,46,10.90
2009,09,17,02,47,10.90
2009,09,17,02,48,10.90
2009,09,17,02,49,10.90
2009,09,17,02,50,10.90
2009,09,17,02,51,10.90
2009,09,17,02,52,10.90
2009,09,17,02,53,10.90
2009,09,17,02,54,10.90
2009,09,17,02,55,10.90
2009,09,17,02,56,10.90
2009,09,17,02,57,10.90
2009,09,17,02,58,10.90
2009,09,17,02,59,10.90
2009,09,17,03,00,10.90
2009,09,17,03,01,10.90
2009,09,17,03,02,10.90
2009,09,17,03,03,10.90
2009,09,17,03,04,10.90
2009,09,17,03,05,10.90
2009,09,17,03,06,10.80
2009,09,17,03,07,10.80
2009,09,17,03,08,10.80
2009,09,17,03,09,10.80
2009,09,17,03,10,10.80
2009,09,17,03,11,10.80
2009,09,17,03,12,10.80
2009,09,17,03,13,10.80
2009,09,17,03,14,10.80
2009,09,17,03,15,10.80
2009,09,17,03,16,10.80
2009,09,17,03,17,10.70
2009,09,17,03,18,10.70
2009,09,17,03,19,10.70
2009,09,17,03,20,10.70
2009,09,17,03,21,10.70
2009,09,17,03,22,10.70
2009,09,17,03,23,10.70
2009,09,17,03,24,10.70
2009,09,17,03,25,10.70
2009,09,17,03,26,10.70
2009,09,17,03,27,10.70
2009,09,17,03,28,10.70
2009,09,17,03,29,10.70
2009,09,17,03,30,10.70
2009,09,17,03,31,10.60
2009,09,17,03,32,10.60
2009,09,17,03,33,10.60
2009,09,17,03,34,10.60
2009,09,17,03,35,10.60
2009,09,17,03,36,10.60
2009,09,17,03,37,10.60
2009,09,17,03,38,10.60
2009,09,17,03,39,10.60
2009,09,17,03,40,10.60
2009,09,17,03,41,10.60
2009,09,17,03,42,10.60
2009,09,17,03,43,10.60
2009,09,17,03,44,10.60
2009,09,17,03,45,10.60
2009,09,17,03,46,10.60
2009,09,17,03,47,10.60
2009,09,17,03,48,10.60
2009,09,17,03,49,10.60
2009,09,17,03,50,10.60
2009,09,17,03,51,10.60
2009,09,17,03,52,10.60
2009,09,17,03,53,10.60
2009,09,17,03,54,10.60
2009,09,17,03,55,10.60
2009,09,17,03,56,10.60
2009,09,17,03,57,10.60
2009,09,17,03,58,10.60
2009,09,17,03,59,10.60
2009,09,17,04,00,10.60
2009,09,17,04,01,10.60
2009,09,17,04,02,10.60
2009,09,17,04,03,10.60
2009,09,17,04,04,10.60
2009,09,17,04,05,10.60
2009,09,17,04,06,10.60
2009,09,17,04,07,10.60
2009,09,17,04,08,10.60
2009,09,17,04,09,10.60
2009,09,17,04,10,10.60
2009,09,17,04,11,10.60
2009,09,17,04,12,10.60
2009,09,17,04,13,10.60
2009,09,17,04,14,10.60
2009,09,17,04,15,10.60
2009,09,17,04,16,10.60
2009,09,17,04,17,10.60
2009,09,17,04,18,10.60
2009,09,17,04,19,10.60
2009,09,17,04,20,10.60
2009,09,17,04,21,10.60
2009,09,17,04,22,10.60
2009,09,17,04,23,10.50
2009,09,17,04,24,10.40
2009,09,17,04,25,10.50
2009,09,17,04,26,10.40
2009,09,17,04,27,10.40
2009,09,17,04,28,10.40
2009,09,17,04,29,10.40
2009,09,17,04,30,10.40
2009,09,17,04,31,10.40
2009,09,17,04,32,10.40
2009,09,17,04,33,10.40
2009,09,17,04,34,10.40
2009,09,17,04,35,10.40
2009,09,17,04,36,10.40
2009,09,17,04,37,10.40
2009,09,17,04,38,10.40
2009,09,17,04,39,10.40
2009,09,17,04,40,10.40
2009,09,17,04,41,10.40
2009,09,17,04,42,10.40
2009,09,17,04,43,10.40
2009,09,17,04,44,10.40
2009,09,17,04,45,10.40
2009,09,17,04,46,10.40
2009,09,17,04,47,10.40
2009,09,17,04,48,10.40
2009,09,17,04,49,10.40
2009,09,17,04,50,10.40
2009,09,17,04,51,10.40
2009,09,17,04,52,10.40
2009,09,17,04,53,10.40
2009,09,17,04,54,10.40
2009,09,17,04,55,10.40
2009,09,17,04,56,10.40
2009,09,17,04,57,10.40
2009,09,17,04,58,10.30
2009,09,17,04,59,10.30
2009,09,17,05,00,10.30
2009,09,17,05,01,10.30
2009,09,17,05,02,10.30
2009,09,17,05,03,10.30
2009,09,17,05,04,10.30
2009,09,17,05,05,10.30
2009,09,17,05,06,10.30
2009,09,17,05,07,10.30
2009,09,17,05,08,10.30
2009,09,17,05,09,10.30
2009,09,17,05,10,10.30
2009,09,17,05,11,10.30
2009,09,17,05,12,10.30
2009,09,17,05,13,10.30
2009,09,17,05,14,10.30
2009,09,17,05,15,10.30
2009,09,17,05,16,10.30
2009,09,17,05,17,10.40
2009,09,17,05,18,10.40
2009,09,17,05,19,10.40
2009,09,17,05,20,10.40
2009,09,17,05,21,10.40
2009,09,17,05,22,10.40
2009,09,17,05,23,10.30
2009,09,17,05,24,10.30
2009,09,17,05,25,10.30
2009,09,17,05,26,10.30
2009,09,17,05,27,10.30
2009,09,17,05,28,10.30
2009,09,17,05,29,10.30
2009,09,17,05,30,10.30
2009,09,17,05,31,10.30
2009,09,17,05,32,10.30
2009,09,17,05,33,10.30
2009,09,17,05,34,10.20
2009,09,17,05,35,10.20
2009,09,17,05,36,10.20
2009,09,17,05,37,10.20
2009,09,17,05,38,10.20
2009,09,17,05,39,10.20
2009,09,17,05,40,10.10
2009,09,17,05,41,10.10
2009,09,17,05,42,10.10
2009,09,17,05,43,10.10
2009,09,17,05,44,10.10
2009,09,17,05,45,10.10
2009,09,17,05,46,10.10
2009,09,17,05,47,10.10
2009,09,17,05,48,10.10
2009,09,17,05,49,10.10
2009,09,17,05,50,10.10
2009,09,17,05,51,10.10
2009,09,17,05,52,10.10
2009,09,17,05,53,9.90
2009,09,17,05,54,9.90
2009,09,17,05,55,9.90
2009,09,17,05,56,9.90
2009,09,17,05,57,9.90
2009,09,17,05,58,9.90
2009,09,17,05,59,9.90
2009,09,17,06,00,9.90
2009,09,17,06,01,9.90
2009,09,17,06,02,9.90
2009,09,17,06,03,9.90
2009,09,17,06,04,9.90
2009,09,17,06,05,9.90
2009,09,17,06,06,9.90
2009,09,17,06,07,9.90
2009,09,17,06,08,9.90
2009,09,17,06,09,9.90
2009,09,17,06,10,9.90
2009,09,17,06,11,9.90
2009,09,17,06,12,9.90
2009,09,17,06,13,9.90
2009,09,17,06,14,9.90
2009,09,17,06,15,9.90
2009,09,17,06,16,9.90
2009,09,17,06,17,9.90
2009,09,17,06,18,9.90
2009,09,17,06,19,9.90
2009,09,17,06,20,9.90
2009,09,17,06,21,9.80
2009,09,17,06,22,9.80
2009,09,17,06,23,9.80
2009,09,17,06,24,9.80
2009,09,17,06,25,9.80
2009,09,17,06,26,9.80
2009,09,17,06,27,9.70
2009,09,17,06,28,9.70
2009,09,17,06,29,9.70
2009,09,17,06,30,9.70
2009,09,17,06,31,9.70
2009,09,17,06,32,9.70
2009,09,17,06,33,9.70
2009,09,17,06,34,9.70
2009,09,17,06,35,9.70
2009,09,17,06,36,9.70
2009,09,17,06,37,9.70
2009,09,17,06,38,9.70
2009,09,17,06,39,9.70
2009,09,17,06,40,9.70
2009,09,17,06,41,9.70
2009,09,17,06,42,9.70
2009,09,17,06,43,9.70
2009,09,17,06,44,9.70
2009,09,17,06,45,9.70
2009,09,17,06,46,9.70
2009,09,17,06,47,9.70
2009,09,17,06,48,9.70
2009,09,17,06,49,9.70
2009,09,17,06,50,9.70
2009,09,17,06,51,9.70
2009,09,17,06,52,9.70
2009,09,17,06,53,9.70
2009,09,17,06,54,9.70
2009,09,17,06,55,9.70
2009,09,17,06,56,9.70
2009,09,17,06,57,9.70
2009,09,17,06,58,9.70
2009,09,17,06,59,9.70
2009,09,17,07,00,9.70
2009,09,17,07,01,9.70
2009,09,17,07,02,9.70
2009,09,17,07,03,9.70
2009,09,17,07,04,9.70
2009,09,17,07,05,9.70
2009,09,17,07,06,9.70
2009,09,17,07,07,9.70
2009,09,17,07,08,9.70
2009,09,17,07,09,9.70
2009,09,17,07,10,9.70
2009,09,17,07,11,9.70
2009,09,17,07,12,9.70
2009,09,17,07,13,9.70
2009,09,17,07,14,9.70
2009,09,17,07,15,9.70
2009,09,17,07,16,9.70
2009,09,17,07,17,9.70
2009,09,17,07,18,9.70
2009,09,17,07,19,9.70
2009,09,17,07,20,9.70
2009,09,17,07,21,9.70
2009,09,17,07,22,9.70
2009,09,17,07,23,9.70
2009,09,17,07,24,9.70
2009,09,17,07,25,9.70
2009,09,17,07,26,9.70
2009,09,17,07,27,9.70
2009,09,17,07,28,9.70
2009,09,17,07,29,9.70
2009,09,17,07,30,9.70
2009,09,17,07,31,9.70
2009,09,17,07,32,9.70
2009,09,17,07,33,9.70
2009,09,17,07,34,9.70
2009,09,17,07,35,9.70
2009,09,17,07,36,9.70
2009,09,17,07,37,9.70
2009,09,17,07,38,9.70
2009,09,17,07,39,9.70
2009,09,17,07,40,9.70
2009,09,17,07,41,9.70
2009,09,17,07,42,9.70
2009,09,17,07,43,9.70
2009,09,17,07,44,9.70
2009,09,17,07,45,9.70
2009,09,17,07,46,9.70
2009,09,17,07,47,9.70
2009,09,17,07,48,9.70
2009,09,17,07,49,9.70
2009,09,17,07,50,9.70
2009,09,17,07,51,9.70
2009,09,17,07,52,9.70
2009,09,17,07,53,9.70
2009,09,17,07,54,9.70
2009,09,17,07,55,9.70
2009,09,17,07,56,9.70
2009,09,17,07,57,9.70
2009,09,17,07,58,9.70
2009,09,17,07,59,9.70
2009,09,17,08,00,9.70
2009,09,17,08,01,9.80
2009,09,17,08,02,9.80
2009,09,17,08,03,9.80
2009,09,17,08,04,9.80
2009,09,17,08,05,9.90
2009,09,17,08,06,9.90
2009,09,17,08,07,9.90
2009,09,17,08,08,9.90
2009,09,17,08,09,9.90
2009,09,17,08,10,9.90
2009,09,17,08,11,9.90
2009,09,17,08,12,9.90
2009,09,17,08,13,9.90
2009,09,17,08,14,10.00
2009,09,17,08,15,10.10
2009,09,17,08,16,10.10
2009,09,17,08,17,10.10
2009,09,17,08,18,10.10
2009,09,17,08,19,10.10
2009,09,17,08,20,10.10
2009,09,17,08,21,10.20
2009,09,17,08,22,10.20
2009,09,17,08,23,10.30
2009,09,17,08,24,10.30
2009,09,17,08,25,10.30
2009,09,17,08,26,10.30
2009,09,17,08,27,10.40
2009,09,17,08,28,10.40
2009,09,17,08,29,10.40
2009,09,17,08,30,10.40
2009,09,17,08,31,10.50
2009,09,17,08,32,10.60
2009,09,17,08,33,10.60
2009,09,17,08,34,10.60
2009,09,17,08,35,10.70
2009,09,17,08,36,10.80
2009,09,17,08,37,10.80
2009,09,17,08,38,10.90
2009,09,17,08,39,10.90
2009,09,17,08,40,10.90
2009,09,17,08,41,11.00
2009,09,17,08,42,11.10
2009,09,17,08,43,11.20
2009,09,17,08,44,11.40
2009,09,17,08,45,11.40
2009,09,17,08,46,11.60
2009,09,17,08,47,11.60
2009,09,17,08,48,11.70
2009,09,17,08,49,11.80
2009,09,17,08,50,11.80
2009,09,17,08,51,11.90
2009,09,17,08,52,11.90
2009,09,17,08,53,12.00
2009,09,17,08,54,12.00
2009,09,17,08,55,12.00
2009,09,17,08,56,12.00
2009,09,17,08,57,12.00
2009,09,17,08,58,12.00
2009,09,17,08,59,11.90
2009,09,17,09,00,12.00
2009,09,17,09,01,12.00
2009,09,17,09,02,12.00
2009,09,17,09,03,12.00
2009,09,17,09,04,12.00
2009,09,17,09,05,12.00
2009,09,17,09,06,12.00
2009,09,17,09,07,12.10
2009,09,17,09,08,12.10
2009,09,17,09,09,12.20
2009,09,17,09,10,12.20
2009,09,17,09,11,12.20
2009,09,17,09,12,12.20
2009,09,17,09,13,12.20
2009,09,17,09,14,12.20
2009,09,17,09,15,12.20
2009,09,17,09,16,12.20
2009,09,17,09,17,12.20
2009,09,17,09,18,12.20
2009,09,17,09,19,12.20
2009,09,17,09,20,12.20
2009,09,17,09,21,12.30
2009,09,17,09,22,12.30
2009,09,17,09,23,12.30
2009,09,17,09,24,12.30
2009,09,17,09,25,12.30
2009,09,17,09,26,12.30
2009,09,17,09,27,12.30
2009,09,17,09,28,12.40
2009,09,17,09,29,12.40
2009,09,17,09,30,12.40
2009,09,17,09,31,12.40
2009,09,17,09,32,12.50
2009,09,17,09,33,12.50
2009,09,17,09,34,12.60
2009,09,17,09,35,12.70
2009,09,17,09,36,12.70
2009,09,17,09,37,12.80
2009,09,17,09,38,12.90
2009,09,17,09,39,13.00
2009,09,17,09,40,13.00
2009,09,17,09,41,13.10
2009,09,17,09,42,13.10
2009,09,17,09,43,13.10
2009,09,17,09,44,13.10
2009,09,17,09,45,13.10
2009,09,17,09,46,13.20
2009,09,17,09,47,13.20
2009,09,17,09,48,13.20
2009,09,17,09,49,13.30
2009,09,17,09,50,13.30
2009,09,17,09,51,13.40
2009,09,17,09,52,13.40
2009,09,17,09,53,13.50
2009,09,17,09,54,13.60
2009,09,17,09,55,13.60
2009,09,17,09,56,13.70
2009,09,17,09,57,13.70
2009,09,17,09,58,13.70
2009,09,17,09,59,13.70
2009,09,17,10,00,13.80
2009,09,17,10,01,13.90
2009,09,17,10,02,13.90
2009,09,17,10,03,13.90
2009,09,17,10,04,13.90
2009,09,17,10,05,14.00
2009,09,17,10,06,14.00
2009,09,17,10,07,14.10
2009,09,17,10,08,14.10
2009,09,17,10,09,14.10
2009,09,17,10,10,14.10
2009,09,17,10,11,14.20
2009,09,17,10,12,14.20
2009,09,17,10,13,14.20
2009,09,17,10,14,14.20
2009,09,17,10,15,14.20
2009,09,17,10,16,14.30
2009,09,17,10,17,14.30
2009,09,17,10,18,14.40
2009,09,17,10,19,14.50
2009,09,17,10,20,14.50
2009,09,17,10,21,14.60
2009,09,17,10,22,14.70
2009,09,17,10,23,14.80
2009,09,17,10,24,14.80
2009,09,17,10,25,14.80
2009,09,17,10,26,14.80
2009,09,17,10,27,14.80
2009,09,17,10,28,14.70
2009,09,17,10,29,14.70
2009,09,17,10,30,14.70
2009,09,17,10,31,14.70
2009,09,17,10,32,14.70
2009,09,17,10,33,14.70
2009,09,17,10,34,14.70
2009,09,17,10,35,14.70
2009,09,17,10,36,14.70
2009,09,17,10,37,14.70
2009,09,17,10,38,14.70
2009,09,17,10,39,14.80
2009,09,17,10,40,14.80
2009,09,17,10,41,14.90
2009,09,17,10,42,15.00
2009,09,17,10,43,15.00
2009,09,17,10,44,15.10
2009,09,17,10,45,15.30
2009,09,17,10,46,15.30
2009,09,17,10,47,15.40
2009,09,17,10,48,15.50
2009,09,17,10,49,15.50
2009,09,17,10,50,15.60
2009,09,17,10,51,15.70
2009,09,17,10,52,15.80
2009,09,17,10,53,15.80
2009,09,17,10,54,15.80
2009,09,17,10,55,15.90
2009,09,17,10,56,15.90
2009,09,17,10,57,16.00
2009,09,17,10,58,16.10
2009,09,17,10,59,15.90
2009,09,17,11,00,16.00
2009,09,17,11,01,16.10
2009,09,17,11,02,16.10
2009,09,17,11,03,16.10
2009,09,17,11,04,16.00
2009,09,17,11,05,16.00
2009,09,17,11,06,16.10
2009,09,17,11,07,16.10
2009,09,17,11,08,16.10
2009,09,17,11,09,16.20
2009,09,17,11,10,16.30
2009,09,17,11,11,16.40
2009,09,17,11,12,16.50
2009,09,17,11,13,16.60
2009,09,17,11,14,16.70
2009,09,17,11,15,16.70
2009,09,17,11,16,16.70
2009,09,17,11,17,16.70
2009,09,17,11,18,16.70
2009,09,17,11,19,16.70
2009,09,17,11,20,16.70
2009,09,17,11,21,16.80
2009,09,17,11,22,16.90
2009,09,17,11,23,16.90
2009,09,17,11,24,17.00
2009,09,17,11,25,17.00
2009,09,17,11,26,17.00
2009,09,17,11,27,17.00
2009,09,17,11,28,16.90
2009,09,17,11,29,16.80
2009,09,17,11,30,16.80
2009,09,17,11,31,16.70
2009,09,17,11,32,16.80
2009,09,17,11,33,16.90
2009,09,17,11,34,17.00
2009,09,17,11,35,17.00
2009,09,17,11,36,17.10
2009,09,17,11,37,17.10
2009,09,17,11,38,17.10
2009,09,17,11,39,17.10
2009,09,17,11,40,17.10
2009,09,17,11,41,17.20
2009,09,17,11,42,17.30
2009,09,17,11,43,17.30
2009,09,17,11,44,17.30
2009,09,17,11,45,17.30
2009,09,17,11,46,17.30
2009,09,17,11,47,17.40
2009,09,17,11,48,17.40
2009,09,17,11,49,17.50
2009,09,17,11,50,17.40
2009,09,17,11,51,17.40
2009,09,17,11,52,17.30
2009,09,17,11,53,17.30
2009,09,17,11,54,17.30
2009,09,17,11,55,17.30
2009,09,17,11,56,17.20
2009,09,17,11,57,17.20
2009,09,17,11,58,17.20
2009,09,17,11,59,17.10
2009,09,17,12,00,17.00
2009,09,17,12,01,17.00
2009,09,17,12,02,16.90
2009,09,17,12,03,16.90
2009,09,17,12,04,16.90
2009,09,17,12,05,16.90
2009,09,17,12,06,17.00
2009,09,17,12,07,17.00
2009,09,17,12,08,17.00
2009,09,17,12,09,17.10
2009,09,17,12,10,17.10
2009,09,17,12,11,17.10
2009,09,17,12,12,17.00
2009,09,17,12,13,17.00
2009,09,17,12,14,16.90
2009,09,17,12,15,16.80
2009,09,17,12,16,16.80
2009,09,17,12,17,16.70
2009,09,17,12,18,16.60
2009,09,17,12,19,16.60
2009,09,17,12,20,16.60
2009,09,17,12,21,16.70
2009,09,17,12,22,16.70
2009,09,17,12,23,16.80
2009,09,17,12,24,16.80
2009,09,17,12,25,16.90
2009,09,17,12,26,17.00
2009,09,17,12,27,17.00
2009,09,17,12,28,17.10
2009,09,17,12,29,17.10
2009,09,17,12,30,17.20
2009,09,17,12,31,17.20
2009,09,17,12,32,17.20
2009,09,17,12,33,17.10
2009,09,17,12,34,17.00
2009,09,17,12,35,16.90
2009,09,17,12,36,16.80
2009,09,17,12,37,16.80
2009,09,17,12,38,16.70
2009,09,17,12,39,16.70
2009,09,17,12,40,16.70
2009,09,17,12,41,16.70
2009,09,17,12,42,16.70
2009,09,17,12,43,16.70
2009,09,17,12,44,16.80
2009,09,17,12,45,16.90
2009,09,17,12,46,17.00
2009,09,17,12,47,17.10
2009,09,17,12,48,17.20
2009,09,17,12,49,17.30
2009,09,17,12,50,17.40
2009,09,17,12,51,17.50
2009,09,17,12,52,17.60
2009,09,17,12,53,17.70
2009,09,17,12,54,17.80
2009,09,17,12,55,17.80
2009,09,17,12,56,17.80
2009,09,17,12,57,17.80
2009,09,17,12,58,17.80
2009,09,17,12,59,17.90
2009,09,17,13,00,17.90
2009,09,17,13,01,18.10
2009,09,17,13,02,18.10
2009,09,17,13,03,18.10
2009,09,17,13,04,18.00
2009,09,17,13,05,17.90
2009,09,17,13,06,17.80
2009,09,17,13,07,17.60
2009,09,17,13,08,17.50
2009,09,17,13,09,17.30
2009,09,17,13,10,17.20
2009,09,17,13,11,17.20
2009,09,17,13,12,17.10
2009,09,17,13,13,17.00
2009,09,17,13,14,17.00
2009,09,17,13,15,17.00
2009,09,17,13,16,17.00
2009,09,17,13,17,17.00
2009,09,17,13,18,17.00
2009,09,17,13,19,17.20
2009,09,17,13,20,17.30
2009,09,17,13,21,17.50
2009,09,17,13,22,17.60
2009,09,17,13,23,17.80
2009,09,17,13,24,17.80
2009,09,17,13,25,17.90
2009,09,17,13,26,17.90
2009,09,17,13,27,17.90
2009,09,17,13,28,17.90
2009,09,17,13,29,17.80
2009,09,17,13,30,17.70
2009,09,17,13,31,17.50
2009,09,17,13,32,17.40
2009,09,17,13,33,17.30
2009,09,17,13,34,17.30
2009,09,17,13,35,17.30
2009,09,17,13,36,17.30
2009,09,17,13,37,17.30
2009,09,17,13,38,17.30
2009,09,17,13,39,17.30
2009,09,17,13,40,17.30
2009,09,17,13,41,17.30
2009,09,17,13,42,17.30
2009,09,17,13,43,17.30
2009,09,17,13,44,17.20
2009,09,17,13,45,17.20
2009,09,17,13,46,17.20
2009,09,17,13,47,17.10
2009,09,17,13,48,17.10
2009,09,17,13,49,17.10
2009,09,17,13,50,17.10
2009,09,17,13,51,17.20
2009,09,17,13,52,17.20
2009,09,17,13,53,17.20
2009,09,17,13,54,17.20
2009,09,17,13,55,17.20
2009,09,17,13,56,17.30
2009,09,17,13,57,17.30
2009,09,17,13,58,17.40
2009,09,17,13,59,17.40
2009,09,17,14,00,17.40
2009,09,17,14,01,17.30
2009,09,17,14,02,17.30
2009,09,17,14,03,17.30
2009,09,17,14,04,17.30
2009,09,17,14,05,17.30
2009,09,17,14,06,17.30
2009,09,17,14,07,17.30
2009,09,17,14,08,17.30
2009,09,17,14,09,17.30
2009,09,17,14,10,17.30
2009,09,17,14,11,17.30
2009,09,17,14,12,17.40
2009,09,17,14,13,17.40
2009,09,17,14,14,17.50
2009,09,17,14,15,17.50
2009,09,17,14,16,17.50
2009,09,17,14,17,17.50
2009,09,17,14,18,17.50
2009,09,17,14,19,17.50
2009,09,17,14,20,17.50
2009,09,17,14,21,17.50
2009,09,17,14,22,17.50
2009,09,17,14,23,17.60
2009,09,17,14,24,17.70
2009,09,17,14,25,17.80
2009,09,17,14,26,17.80
2009,09,17,14,27,17.90
2009,09,17,14,28,17.90
2009,09,17,14,29,17.90
2009,09,17,14,30,17.90
2009,09,17,14,31,17.90
2009,09,17,14,32,17.90
2009,09,17,14,33,17.90
2009,09,17,14,34,17.90
2009,09,17,14,35,17.90
2009,09,17,14,36,17.90
2009,09,17,14,37,17.90
2009,09,17,14,38,17.90
2009,09,17,14,39,17.90
2009,09,17,14,40,17.90
2009,09,17,14,41,17.90
2009,09,17,14,42,17.90
2009,09,17,14,43,18.00
2009,09,17,14,44,18.10
2009,09,17,14,45,18.10
2009,09,17,14,46,18.20
2009,09,17,14,47,18.20
2009,09,17,14,48,18.20
2009,09,17,14,49,18.20
2009,09,17,14,50,18.20
2009,09,17,14,51,18.20
2009,09,17,14,52,18.30
2009,09,17,14,53,18.40
2009,09,17,14,54,18.40
2009,09,17,14,55,18.40
2009,09,17,14,56,18.40
2009,09,17,14,57,18.40
2009,09,17,14,58,18.40
2009,09,17,14,59,18.40
2009,09,17,15,00,18.40
2009,09,17,15,01,18.40
2009,09,17,15,02,18.40
2009,09,17,15,03,18.40
2009,09,17,15,04,18.40
2009,09,17,15,05,18.40
2009,09,17,15,06,18.40
2009,09,17,15,07,18.40
2009,09,17,15,08,18.40
2009,09,17,15,09,18.40
2009,09,17,15,10,18.40
2009,09,17,15,11,18.40
2009,09,17,15,12,18.40
2009,09,17,15,13,18.40
2009,09,17,15,14,18.40
2009,09,17,15,15,18.40
2009,09,17,15,16,18.40
2009,09,17,15,17,18.50
2009,09,17,15,18,18.50
2009,09,17,15,19,18.50
2009,09,17,15,20,18.50
2009,09,17,15,21,18.50
2009,09,17,15,22,18.50
2009,09,17,15,23,18.50
2009,09,17,15,24,18.50
2009,09,17,15,25,18.60
2009,09,17,15,26,18.60
2009,09,17,15,27,18.60
2009,09,17,15,28,18.50
2009,09,17,15,29,18.50
2009,09,17,15,30,18.60
2009,09,17,15,31,18.60
2009,09,17,15,32,18.60
2009,09,17,15,33,18.60
2009,09,17,15,34,18.60
2009,09,17,15,35,18.60
2009,09,17,15,36,18.60
2009,09,17,15,37,18.70
2009,09,17,15,38,18.70
2009,09,17,15,39,18.70
2009,09,17,15,40,18.70
2009,09,17,15,41,18.70
2009,09,17,15,42,18.70
2009,09,17,15,43,18.80
2009,09,17,15,44,18.90
2009,09,17,15,45,18.90
2009,09,17,15,46,19.00
2009,09,17,15,47,19.10
2009,09,17,15,48,19.10
2009,09,17,15,49,19.10
2009,09,17,15,50,19.10
2009,09,17,15,51,19.10
2009,09,17,15,52,19.00
2009,09,17,15,53,18.90
2009,09,17,15,54,18.90
2009,09,17,15,55,18.90
2009,09,17,15,56,18.90
2009,09,17,15,57,18.90
2009,09,17,15,58,18.90
2009,09,17,15,59,18.90
2009,09,17,16,00,18.80
2009,09,17,16,01,18.80
2009,09,17,16,02,18.70
2009,09,17,16,03,18.70
2009,09,17,16,04,18.60
2009,09,17,16,05,18.60
2009,09,17,16,06,18.60
2009,09,17,16,07,18.60
2009,09,17,16,08,18.60
2009,09,17,16,09,18.60
2009,09,17,16,10,18.60
2009,09,17,16,11,18.60
2009,09,17,16,12,18.60
2009,09,17,16,13,18.70
2009,09,17,16,14,18.70
2009,09,17,16,15,18.70
2009,09,17,16,16,18.80
2009,09,17,16,17,18.90
2009,09,17,16,18,18.90
2009,09,17,16,19,18.90
2009,09,17,16,20,18.90
2009,09,17,16,21,18.90
2009,09,17,16,22,18.90
2009,09,17,16,23,18.90
2009,09,17,16,24,18.90
2009,09,17,16,25,18.80
2009,09,17,16,26,18.80
2009,09,17,16,27,18.70
2009,09,17,16,28,18.70
2009,09,17,16,29,18.70
2009,09,17,16,30,18.70
2009,09,17,16,31,18.70
2009,09,17,16,32,18.70
2009,09,17,16,33,18.70
2009,09,17,16,34,18.60
2009,09,17,16,35,18.60
2009,09,17,16,36,18.60
2009,09,17,16,37,18.60
2009,09,17,16,38,18.60
2009,09,17,16,39,18.60
2009,09,17,16,40,18.60
2009,09,17,16,41,18.60
2009,09,17,16,42,18.60
2009,09,17,16,43,18.60
2009,09,17,16,44,18.60
2009,09,17,16,45,18.60
2009,09,17,16,46,18.60
2009,09,17,16,47,18.60
2009,09,17,16,48,18.60
2009,09,17,16,49,18.60
2009,09,17,16,50,18.70
2009,09,17,16,51,18.80
2009,09,17,16,52,18.80
2009,09,17,16,53,18.80
2009,09,17,16,54,18.80
2009,09,17,16,55,18.80
2009,09,17,16,56,18.90
2009,09,17,16,57,18.80
2009,09,17,16,58,18.80
2009,09,17,16,59,18.80
2009,09,17,17,00,18.80
2009,09,17,17,01,18.90
2009,09,17,17,02,18.90
2009,09,17,17,03,19.00
2009,09,17,17,04,19.10
2009,09,17,17,05,19.10
2009,09,17,17,06,19.10
2009,09,17,17,07,19.10
2009,09,17,17,08,19.10
2009,09,17,17,09,19.10
2009,09,17,17,10,19.10
2009,09,17,17,11,19.10
2009,09,17,17,12,19.10
2009,09,17,17,13,19.10
2009,09,17,17,14,19.10
2009,09,17,17,15,19.10
2009,09,17,17,16,19.10
2009,09,17,17,17,19.10
2009,09,17,17,18,19.00
2009,09,17,17,19,18.90
2009,09,17,17,20,18.90
2009,09,17,17,21,18.90
2009,09,17,17,22,18.90
2009,09,17,17,23,18.90
2009,09,17,17,24,18.90
2009,09,17,17,25,18.80
2009,09,17,17,26,18.80
2009,09,17,17,27,18.70
2009,09,17,17,28,18.70